Content
SEND FEEDBACK

Daily
Averages
Monthly
Summary
United States of America

CHICAGO, ILLINOIS


Home > North America > United States > Illinois
Elevation: 674 feet     Latitude: 41 59N     Longitude: 087 54W

WEATHER
 
SELECT A DAY
Number of Records: 195,010;   Date Range: 7/8/95 - 8/30/14
 
SHARE

PRINT THIS DATA

[ ← Previous Day ]
WEATHER ALMANAC - FEBRUARY 10, 2013
[ Next Day → ]
[ °C ]   °F
Weather ElementAverageHighLow
Temperature39.7 °F48 °F (9:52 pm)27 °F (1:52 am)
Dewpoint35.9 °F44.1 °F (9:52 pm)23 °F (1:52 am)
Humidity86.5 %93 % (9:10 am)63 % (11:52 pm)
Barometer29.74 in30.10 in (1:52 am)29.51 in (10:28 pm)
Wind Speed12.6 mph20.7 mph (5:59 pm)
Wind Gust32.2 mph (2:52 pm)
Weather ElementAverage
Visibility6.9 mi
Wind DirectionSSE (164.9 °)

Weather ElementTotal
Precipitation0.47 in
Heating Degree Days27.5 (Base 65)
Averaged from 35 records on February 10, 2013
WEATHER CONDITIONS BREAKOUT
WIND DIRECTION BREAKOUT
WEATHER BY HOUR - FEBRUARY 10, 2013
[ °C ]   °F
Local TimeTemperatureDewpointHumidityBarometerVisibilityWind DirectionWind SpeedGust SpeedPrecipitationEventsConditions
1:52 AM27.0 °F23.0 °F85 %30.10 in9.0 miSE (140°)4.6 mphClear
2:52 AM30.9 °F25.0 °F79 %30.07 in9.0 miESE (120°)4.6 mphMostly Cloudy
3:52 AM33.1 °F26.1 °F75 %30.03 in10.0 miSSE (150°)8.1 mphOvercast
4:52 AM34.0 °F26.1 °F73 %30.03 in10.0 miSSE (160°)6.9 mphScattered Clouds
5:52 AM34.0 °F27.0 °F75 %30.01 in10.0 miSE (140°)5.8 mphOvercast
6:52 AM35.1 °F28.9 °F78 %29.98 in10.0 miSE (140°)8.1 mph0.00 inRainLight Rain
7:22 AM35.6 °F30.2 °F81 %29.93 in9.0 miESE (120°)5.8 mph0.00 inOvercast
7:45 AM35.6 °F30.2 °F81 %29.93 in8.0 miSE (140°)5.8 mph0.01 inOvercast
7:52 AM35.1 °F30.9 °F85 %29.96 in8.0 miSE (140°)4.6 mph0.01 inOvercast
8:52 AM36.0 °F33.1 °F89 %29.94 in5.0 miSSE (150°)10.4 mph0.04 inRainLight Rain
9:10 AM35.6 °F33.8 °F93 %29.91 in5.0 miSSE (150°)9.2 mph0.01 inRainLight Rain
9:52 AM36.0 °F34.0 °F93 %29.90 in4.0 miSE (140°)9.2 mph0.05 inRainLight Rain
10:20 AM35.6 °F33.8 °F93 %29.86 in4.0 miSSE (160°)10.4 mph0.03 inRainLight Rain
10:52 AM37.0 °F34.0 °F89 %29.85 in4.0 miSE (140°)8.1 mph0.08 inRainLight Rain
11:52 AM37.0 °F35.1 °F93 %29.78 in3.0 miSE (140°)11.5 mph0.08 inRainRain
12:00 PM37.4 °F35.6 °F93 %29.75 in2.5 miSSE (150°)10.4 mph0.01 inRainLight Rain
12:52 PM39.0 °F36.0 °F89 %29.72 in5.0 miSSE (150°)16.1 mph23.0 mph0.05 inRainLight Rain
1:43 PM39.2 °F37.4 °F93 %29.62 in5.0 miSSE (150°)16.1 mph0.03 inRainLight Rain
1:52 PM41.0 °F37.9 °F89 %29.64 in7.0 miSSE (160°)18.4 mph25.3 mph0.03 inOvercast
2:52 PM42.1 °F39.0 °F89 %29.61 in8.0 miSouth (170°)19.6 mph32.2 mph0.01 inOvercast
3:52 PM43.0 °F39.0 °F86 %29.58 in8.0 miSouth (170°)17.3 mph25.3 mphOvercast
4:23 PM42.8 °F39.2 °F87 %29.56 in2.0 miSouth (180°)18.4 mph0.00 inOvercast
4:31 PM42.8 °F41.0 °F93 %29.56 in1.8 miSouth (180°)17.3 mph26.5 mph0.00 inRainLight Rain
4:52 PM43.0 °F41.0 °F93 %29.57 in1.8 miSouth (180°)16.1 mph0.01 inOvercast
5:47 PM44.6 °F42.8 °F93 %29.55 in1.8 miSouth (180°)19.6 mph25.3 mph0.01 inOvercast
5:52 PM44.1 °F42.1 °F93 %29.56 in1.8 miSouth (180°)19.6 mph26.5 mph0.01 inOvercast
5:59 PM44.6 °F42.8 °F93 %29.55 in10.0 miSouth (180°)20.7 mph27.6 mphOvercast
6:52 PM45.0 °F42.1 °F90 %29.56 in10.0 miSouth (190°)16.1 mphOvercast
7:42 PM44.6 °F42.8 °F93 %29.52 in10.0 miSouth (180°)16.1 mphOvercast
7:52 PM46.0 °F43.0 °F89 %29.53 in10.0 miSouth (180°)16.1 mphOvercast
8:52 PM46.0 °F43.0 °F89 %29.52 in10.0 miSouth (190°)11.5 mphMostly Cloudy
9:52 PM48.0 °F44.1 °F86 %29.52 in10.0 miSSW (210°)12.7 mph23.0 mphOvercast
10:28 PM46.4 °F42.8 °F87 %29.51 in10.0 miSW (220°)15.0 mph23.0 mphScattered Clouds
10:52 PM46.0 °F39.9 °F79 %29.52 in10.0 miSW (220°)13.8 mph20.7 mphClear
11:52 PM45.0 °F33.1 °F63 %29.52 in10.0 miSW (220°)17.3 mph28.8 mphMostly Cloudy
Hourly data recorded from KPWK, located miles away from Chicago, Illinois







STORIES FROM OUR PARTNERS